Location: ???????
(55.3754°N, 39.3545°E)
Time: 21:36:04
(UTC+00:00)

Cosmos 2369 Rocket - Pass Details

Date: 14 April 2026
Orbit: 829 x 850 km, 71.0° (Epoch: 16 May)

Event Time Altitude Azimuth Distance (km) Brightness Sun altitude
Rises 18:42:26 0° 325° (NW) 3,388 7.1 -16.9°
Reaches altitude 10° 18:44:55 10° 329° (NNW) 2,450 5.9 -17.2°
Maximum altitude 18:50:29 64° 51° (NE) 923 2.3 -17.7°
Enters shadow 18:53:16 30° 123° (ESE) 1,463 2.9 -17.9°
